#�ϑ�����,���ϕ���,���ϕ���,�ő啗��,�ő啗����������,�ő�u�ԕ���,�ő�u�ԕ�����������
#(�N����),(m/s)   ,(16����),(m/s)   ,(16����)        ,(m/s)       ,(16����)            
2016/5/11 0:01,1.8,2,1.8,2,2.4,2
2016/5/11 0:02,1.7,2,1.8,2,1.9,1
2016/5/11 0:03,1.7,2,1.7,2,1.8,2
2016/5/11 0:04,1.7,2,1.7,2,3.7,3
2016/5/11 0:05,1.7,2,1.7,2,2.6,3
2016/5/11 0:06,1.6,2,1.7,2,2.1,1
2016/5/11 0:07,1.5,2,1.6,2,1,16
2016/5/11 0:08,1.5,2,1.5,2,2.2,3
2016/5/11 0:09,1.5,2,1.5,2,2.6,3
2016/5/11 0:10,1.6,3,1.6,2,3.3,3
2016/5/11 0:11,1.7,3,1.7,2,3,5
2016/5/11 0:12,1.7,3,1.7,2,2.7,5
2016/5/11 0:13,1.7,3,1.7,2,1.9,4
2016/5/11 0:14,1.7,3,1.7,2,2.4,3
2016/5/11 0:15,1.7,3,1.7,2,3.3,4
2016/5/11 0:16,1.8,3,1.8,3,3.3,2
2016/5/11 0:17,1.9,3,1.9,3,2.5,3
2016/5/11 0:18,2,3,2,3,3.5,3
2016/5/11 0:19,2,3,2,3,3.1,3
2016/5/11 0:20,2,3,2,3,2.7,4
2016/5/11 0:21,1.9,3,1.9,3,3.3,2
2016/5/11 0:22,2,3,2,3,5.1,3
2016/5/11 0:23,2.2,3,2.2,3,4.2,4
2016/5/11 0:24,2.3,3,2.3,3,3.9,2
2016/5/11 0:25,2.2,2,2.2,3,4.3,3
2016/5/11 0:26,2.3,2,2.3,3,4.9,3
2016/5/11 0:27,2.5,3,2.5,3,4.2,3
2016/5/11 0:28,2.5,3,2.5,3,3,2
2016/5/11 0:29,2.5,3,2.5,3,3.3,3
2016/5/11 0:30,2.5,3,2.6,3,3,3
2016/5/11 0:31,2.5,3,2.5,3,2,2
2016/5/11 0:32,2.2,3,2.4,3,1.9,3
2016/5/11 0:33,2.1,2,2.2,3,2.1,2
2016/5/11 0:34,2,3,2.1,3,2.7,2
2016/5/11 0:35,2,3,2,3,2.7,3
2016/5/11 0:36,1.8,3,1.9,3,2.1,4
2016/5/11 0:37,1.6,3,1.8,3,1.8,4
2016/5/11 0:38,1.5,3,1.6,3,2.5,3
2016/5/11 0:39,1.4,3,1.5,3,2.5,3
2016/5/11 0:40,1.4,3,1.4,3,3.6,3
2016/5/11 0:41,1.5,3,1.5,3,2.6,3
2016/5/11 0:42,1.7,3,1.7,3,3.9,3
2016/5/11 0:43,1.8,3,1.8,2,3.2,4
2016/5/11 0:44,1.8,3,1.8,3,2.9,4
2016/5/11 0:45,1.9,3,1.9,3,3.5,3
2016/5/11 0:46,1.9,3,1.9,3,3,4
2016/5/11 0:47,1.9,3,1.9,3,2.2,4
2016/5/11 0:48,1.8,3,1.9,3,2.2,4
2016/5/11 0:49,1.8,3,1.8,3,1.8,4
2016/5/11 0:50,1.7,4,1.8,3,2,4
2016/5/11 0:51,1.6,4,1.7,3,1.5,5
2016/5/11 0:52,1.5,4,1.6,3,1.1,4
2016/5/11 0:53,1.4,3,1.4,3,2.4,1
2016/5/11 0:54,1.4,3,1.4,3,3.5,4
2016/5/11 0:55,1.3,3,1.4,3,3.1,2
2016/5/11 0:56,1.4,3,1.4,3,2.5,3
2016/5/11 0:57,1.4,3,1.4,3,2.9,3
2016/5/11 0:58,1.5,3,1.5,3,2.6,3
2016/5/11 0:59,1.5,3,1.5,3,2.4,3
2016/5/11 1:00,1.6,3,1.6,4,2,2
2016/5/11 1:01,1.6,3,1.6,4,2.2,2
2016/5/11 1:02,1.7,3,1.7,3,2,2
2016/5/11 1:03,1.7,3,1.7,3,3.1,3
2016/5/11 1:04,1.7,2,1.7,3,2.2,3
2016/5/11 1:05,1.6,2,1.7,3,2.4,3
2016/5/11 1:06,1.6,2,1.6,3,3.2,3
2016/5/11 1:07,1.7,2,1.7,3,2.9,2
2016/5/11 1:08,1.7,2,1.7,3,3.1,2
2016/5/11 1:09,1.7,2,1.7,3,2.5,4
2016/5/11 1:10,1.7,2,1.7,3,1.9,2
2016/5/11 1:11,1.7,2,1.7,3,3.5,3
2016/5/11 1:12,1.8,2,1.8,2,3.3,3
2016/5/11 1:13,1.8,2,1.8,2,2,2
2016/5/11 1:14,1.6,2,1.7,2,1.1,1
2016/5/11 1:15,1.6,2,1.6,2,2,1
2016/5/11 1:16,1.6,2,1.6,2,2.7,2
2016/5/11 1:17,1.6,2,1.6,2,2.9,2
2016/5/11 1:18,1.6,2,1.6,2,3.2,1
2016/5/11 1:19,1.6,2,1.6,2,3,1
2016/5/11 1:20,1.7,2,1.7,2,3.5,2
2016/5/11 1:21,1.6,2,1.7,2,3.5,3
2016/5/11 1:22,1.7,2,1.7,2,4.1,2
2016/5/11 1:23,1.8,2,1.8,2,3.9,2
2016/5/11 1:24,2,2,2,2,3.2,2
2016/5/11 1:25,2.1,2,2.1,2,3.5,2
2016/5/11 1:26,2.1,2,2.1,2,2.6,2
2016/5/11 1:27,2,2,2.1,2,2.7,3
2016/5/11 1:28,1.9,2,2,2,2.4,1
2016/5/11 1:29,2,2,2,2,3,3
2016/5/11 1:30,1.9,2,2,2,2.5,16
2016/5/11 1:31,1.9,2,1.9,2,2.9,1
2016/5/11 1:32,1.8,2,1.9,2,2.7,1
2016/5/11 1:33,1.7,2,1.8,2,2.6,3
2016/5/11 1:34,1.7,2,1.7,2,2.6,2
2016/5/11 1:35,1.6,2,1.7,2,2.2,2
2016/5/11 1:36,1.6,2,1.6,2,2.7,1
2016/5/11 1:37,1.5,2,1.6,2,2.5,2
2016/5/11 1:38,1.5,2,1.5,2,2.1,2
2016/5/11 1:39,1.5,2,1.6,2,2.2,1
2016/5/11 1:40,1.5,2,1.5,2,2,2
2016/5/11 1:41,1.5,2,1.5,2,2.2,1
2016/5/11 1:42,1.5,2,1.5,2,2.7,1
2016/5/11 1:43,1.5,2,1.5,2,2,2
2016/5/11 1:44,1.5,2,1.5,2,2,1
2016/5/11 1:45,1.5,2,1.5,2,2.4,2
2016/5/11 1:46,1.5,2,1.5,2,2.4,2
2016/5/11 1:47,1.4,2,1.5,2,1.8,16
2016/5/11 1:48,1.5,2,1.5,2,2.6,2
2016/5/11 1:49,1.4,2,1.5,2,1.8,3
2016/5/11 1:50,1.5,2,1.5,2,3.1,2
2016/5/11 1:51,1.5,2,1.5,2,2.4,4
2016/5/11 1:52,1.5,2,1.5,2,2.9,3
2016/5/11 1:53,1.6,2,1.6,2,2.5,3
2016/5/11 1:54,1.6,2,1.6,2,2.4,3
2016/5/11 1:55,1.5,2,1.6,2,1.8,1
2016/5/11 1:56,1.5,2,1.5,2,1.8,16
2016/5/11 1:57,1.5,2,1.5,2,2.1,1
2016/5/11 1:58,1.5,2,1.5,2,2.4,3
2016/5/11 1:59,1.5,2,1.5,2,2,2
2016/5/11 2:00,1.5,2,1.5,2,1.6,2
2016/5/11 2:01,1.4,2,1.5,2,1.9,3
2016/5/11 2:02,1.3,2,1.4,2,1.6,2
2016/5/11 2:03,1.2,2,1.3,2,1.3,3
2016/5/11 2:04,1.1,2,1.2,2,1.8,2
2016/5/11 2:05,1.2,2,1.2,2,2,3
2016/5/11 2:06,1.2,2,1.2,2,1.9,3
2016/5/11 2:07,1.2,2,1.2,2,2.1,3
2016/5/11 2:08,1.2,2,1.2,2,1.9,4
2016/5/11 2:09,1.2,3,1.2,2,2.5,3
2016/5/11 2:10,1.3,3,1.3,2,2.7,5
2016/5/11 2:11,1.3,3,1.3,2,2.4,3
2016/5/11 2:12,1.4,3,1.4,3,2.7,3
2016/5/11 2:13,1.5,3,1.5,3,2.4,3
2016/5/11 2:14,1.7,4,1.7,3,3.2,3
2016/5/11 2:15,1.8,4,1.8,4,3.5,3
2016/5/11 2:16,1.8,3,1.8,4,3.1,2
2016/5/11 2:17,1.9,3,1.9,3,3.6,3
2016/5/11 2:18,2,3,2,3,2.7,3
2016/5/11 2:19,1.9,3,2,3,2,2
2016/5/11 2:20,1.9,3,2,3,1.9,1
2016/5/11 2:21,1.9,2,1.9,3,1.8,16
2016/5/11 2:22,1.7,2,1.9,3,0.9,1
2016/5/11 2:23,1.6,2,1.7,3,1.5,16
2016/5/11 2:24,1.4,1,1.6,3,0.9,16
2016/5/11 2:25,1.2,1,1.4,3,0.1,2
2016/5/11 2:26,1,1,1.1,3,0.6,2
2016/5/11 2:27,0.8,1,1,3,0.1,2
2016/5/11 2:28,0.7,1,0.8,3,1.3,2
2016/5/11 2:29,0.6,1,0.7,3,1.1,2
2016/5/11 2:30,0.5,1,0.6,3,0.5,2
2016/5/11 2:31,0.4,1,0.5,2,0.4,2
2016/5/11 2:32,0.3,2,0.4,2,0.5,2
2016/5/11 2:33,0.3,2,0.3,2,0.1,2
2016/5/11 2:34,0.2,2,0.3,1,0.3,2
2016/5/11 2:35,0.3,2,0.3,1,1,2
2016/5/11 2:36,0.3,2,0.3,1,0.8,2
2016/5/11 2:37,0.3,2,0.3,1,0.8,2
2016/5/11 2:38,0.3,2,0.3,1,1,2
2016/5/11 2:39,0.3,2,0.3,1,0.4,2
2016/5/11 2:40,0.3,2,0.3,1,0.6,2
2016/5/11 2:41,0.3,2,0.3,1,0.4,2
2016/5/11 2:42,0.3,2,0.3,2,0.6,2
2016/5/11 2:43,0.4,2,0.4,2,1.8,16
2016/5/11 2:44,0.5,2,0.5,2,1.8,1
2016/5/11 2:45,0.6,1,0.6,2,1.8,1
2016/5/11 2:46,0.7,1,0.7,1,2.1,16
2016/5/11 2:47,0.8,1,0.8,1,2.1,16
2016/5/11 2:48,0.9,1,0.9,1,1.8,16
2016/5/11 2:49,1,1,1,1,1,1
2016/5/11 2:50,1,1,1,1,0.9,2
2016/5/11 2:51,1,1,1,1,0.9,1
2016/5/11 2:52,1,1,1,1,0.4,15
2016/5/11 2:53,0.9,1,1,1,0,5
2016/5/11 2:54,0.8,1,0.9,1,0.9,16
2016/5/11 2:55,0.8,1,0.8,1,1.3,1
2016/5/11 2:56,0.8,1,0.8,1,1.8,1
2016/5/11 2:57,0.8,1,0.8,1,1.9,1
2016/5/11 2:58,0.7,1,0.8,1,1.4,16
2016/5/11 2:59,0.7,1,0.7,1,0.9,2
2016/5/11 3:00,0.7,1,0.7,1,0.6,3
2016/5/11 3:01,0.6,1,0.7,1,0.5,3
2016/5/11 3:02,0.6,1,0.6,1,0.1,10
2016/5/11 3:03,0.6,16,0.6,1,0.3,12
2016/5/11 3:04,0.6,16,0.6,1,0.9,11
2016/5/11 3:05,0.6,16,0.6,1,0.6,15
2016/5/11 3:06,0.5,15,0.6,1,0.8,16
2016/5/11 3:07,0.3,15,0.4,1,0.5,1
2016/5/11 3:08,0.3,15,0.3,1,1.1,16
2016/5/11 3:09,0.4,15,0.4,1,1.6,1
2016/5/11 3:10,0.5,15,0.5,2,1.8,1
2016/5/11 3:11,0.5,15,0.5,1,1.6,1
2016/5/11 3:12,0.6,15,0.6,1,1.5,15
2016/5/11 3:13,0.7,16,0.7,16,1.8,16
2016/5/11 3:14,0.8,16,0.8,16,1.9,15
2016/5/11 3:15,0.8,16,0.8,16,1.5,15
2016/5/11 3:16,0.9,16,0.9,16,1.8,15
2016/5/11 3:17,1.1,16,1.1,16,2.2,15
2016/5/11 3:18,1.1,16,1.1,16,1.6,14
2016/5/11 3:19,1.1,15,1.1,16,1.5,16
2016/5/11 3:20,1.1,15,1.1,16,1.9,16
2016/5/11 3:21,1.2,15,1.2,15,2.1,16
2016/5/11 3:22,1.2,15,1.2,15,1.1,16
2016/5/11 3:23,1.1,15,1.2,15,0.8,16
2016/5/11 3:24,1,16,1.1,15,1.3,16
2016/5/11 3:25,1,15,1,15,1.1,15
2016/5/11 3:26,1,15,1,15,1.6,15
2016/5/11 3:27,1,15,1,15,1.9,15
2016/5/11 3:28,1,15,1,15,1.4,15
2016/5/11 3:29,0.9,16,1,15,1.1,16
2016/5/11 3:30,0.8,16,0.8,15,0.8,1
2016/5/11 3:31,0.7,16,0.8,15,1.4,1
2016/5/11 3:32,0.8,16,0.8,15,1.1,1
2016/5/11 3:33,0.9,16,0.9,15,1.8,1
2016/5/11 3:34,0.9,16,0.9,16,1.5,1
2016/5/11 3:35,1,16,1,15,1.4,16
2016/5/11 3:36,0.9,16,1,15,1.1,16
2016/5/11 3:37,0.9,16,0.9,15,1.1,16
2016/5/11 3:38,0.9,16,0.9,15,1.8,15
2016/5/11 3:39,0.9,16,0.9,16,1.4,14
2016/5/11 3:40,1,16,1,16,1.8,14
2016/5/11 3:41,1,15,1,16,1.3,14
2016/5/11 3:42,1,15,1,16,1.1,14
2016/5/11 3:43,1,15,1,16,1.8,14
2016/5/11 3:44,1,15,1,16,1.8,14
2016/5/11 3:45,1,15,1,16,2.2,15
2016/5/11 3:46,1,15,1,16,1.9,16
2016/5/11 3:47,1,15,1,16,1.3,15
2016/5/11 3:48,1.1,14,1.1,14,1.6,15
2016/5/11 3:49,1,15,1.1,14,1.5,15
2016/5/11 3:50,1,15,1,14,1.5,16
2016/5/11 3:51,0.9,15,1,14,0.6,16
2016/5/11 3:52,0.8,15,0.9,14,0.4,15
2016/5/11 3:53,0.8,15,0.8,14,1.3,15
2016/5/11 3:54,0.7,15,0.8,14,1.3,16
2016/5/11 3:55,0.7,15,0.7,14,2,16
2016/5/11 3:56,0.8,15,0.8,14,3.3,15
2016/5/11 3:57,1,15,1,14,4.2,16
2016/5/11 3:58,1.3,15,1.3,15,5.1,16
2016/5/11 3:59,1.6,15,1.6,15,5.5,16
2016/5/11 4:00,2,15,2,15,7,14
2016/5/11 4:01,2.4,15,2.4,15,10.6,16
2016/5/11 4:02,3.2,15,3.2,15,13.3,15
2016/5/11 4:03,3.5,15,3.5,16,9,15
2016/5/11 4:04,3.9,15,3.9,15,9.2,16
2016/5/11 4:05,4.3,15,4.3,15,10,15
2016/5/11 4:06,4.7,15,4.7,15,10.1,15
2016/5/11 4:07,5.1,15,5.1,15,10,15
2016/5/11 4:08,5.4,15,5.4,15,10.1,14
2016/5/11 4:09,5.6,15,5.6,15,9.2,15
2016/5/11 4:10,5.6,15,5.7,15,8.4,15
2016/5/11 4:11,5.8,15,5.8,15,10.8,15
2016/5/11 4:12,5.9,15,5.9,15,13.2,15
2016/5/11 4:13,6.1,15,6.1,15,10,16
2016/5/11 4:14,6.2,15,6.2,15,9.9,15
2016/5/11 4:15,6.4,15,6.4,15,12.5,15
2016/5/11 4:16,6.6,15,6.6,15,11.5,15
2016/5/11 4:17,6.5,15,6.6,15,11.4,15
2016/5/11 4:18,6.2,15,6.6,15,8.3,15
2016/5/11 4:19,6.1,15,6.3,15,8.9,16
2016/5/11 4:20,6.2,15,6.2,15,8.6,15
2016/5/11 4:21,6.1,15,6.2,15,8.7,15
2016/5/11 4:22,5.8,15,6,15,8.1,15
2016/5/11 4:23,5.7,15,5.8,15,9.5,16
2016/5/11 4:24,5.9,15,5.9,15,11.9,15
2016/5/11 4:25,5.8,15,5.9,15,10.2,14
2016/5/11 4:26,5.8,15,5.9,15,10.9,16
2016/5/11 4:27,5.7,15,5.9,15,7.4,15
2016/5/11 4:28,5.8,15,5.8,15,8.3,15
2016/5/11 4:29,5.8,15,5.8,15,8.3,14
2016/5/11 4:30,5.8,15,5.8,15,10.8,16
2016/5/11 4:31,5.8,15,5.8,15,9.3,15
2016/5/11 4:32,5.9,15,5.9,15,11,15
2016/5/11 4:33,5.9,15,5.9,15,9.1,15
2016/5/11 4:34,5.6,15,5.9,15,9.4,16
2016/5/11 4:35,5.2,15,5.6,15,7.4,15
2016/5/11 4:36,4.7,15,5.2,15,4.8,12
2016/5/11 4:37,4.7,15,4.7,15,7.9,14
2016/5/11 4:38,4.5,15,4.6,15,5.2,14
2016/5/11 4:39,4.1,15,4.4,15,4.5,1
2016/5/11 4:40,3.8,15,4.1,15,3.2,15
2016/5/11 4:41,3.4,15,3.7,15,2.7,8
2016/5/11 4:42,3,15,3.3,15,5.4,13
2016/5/11 4:43,2.6,15,3,15,4.5,12
2016/5/11 4:44,2.5,15,2.5,15,8.7,15
2016/5/11 4:45,2.8,15,2.8,15,9.2,15
2016/5/11 4:46,2.7,14,2.8,15,4.2,14
2016/5/11 4:47,2.4,14,2.7,15,3.9,16
2016/5/11 4:48,2.3,14,2.4,15,4.1,12
2016/5/11 4:49,2.4,14,2.4,15,6.3,16
2016/5/11 4:50,2.5,14,2.5,15,5.6,16
2016/5/11 4:51,2.8,14,2.8,15,5.7,15
2016/5/11 4:52,2.9,15,2.9,15,6,15
2016/5/11 4:53,2.9,15,3,15,4.9,1
2016/5/11 4:54,2.5,14,2.9,15,2.7,16
2016/5/11 4:55,2.2,14,2.5,15,2.4,9
2016/5/11 4:56,2.1,14,2.1,15,2.1,9
2016/5/11 4:57,2.2,14,2.2,15,4.4,14
2016/5/11 4:58,2.2,13,2.2,15,3.1,12
2016/5/11 4:59,2.1,13,2.2,15,3,12
2016/5/11 5:00,2.1,12,2.1,15,4.1,12
2016/5/11 5:01,1.9,11,2.1,15,2.9,10
2016/5/11 5:02,1.7,11,1.9,15,2.6,12
2016/5/11 5:03,1.8,11,1.8,15,3.8,14
2016/5/11 5:04,2,11,2,14,3.8,11
2016/5/11 5:05,2,11,2,14,3.3,10
2016/5/11 5:06,2.1,11,2.1,14,2.6,15
2016/5/11 5:07,2.2,11,2.2,14,4.3,12
2016/5/11 5:08,2.3,12,2.3,12,4.9,13
2016/5/11 5:09,2.3,12,2.3,12,4.4,12
2016/5/11 5:10,2.5,12,2.5,12,6.4,12
2016/5/11 5:11,2.6,12,2.6,12,4.4,11
2016/5/11 5:12,2.7,12,2.7,12,3.6,10
2016/5/11 5:13,2.6,12,2.7,12,3.8,9
2016/5/11 5:14,2.6,12,2.6,12,5.2,9
2016/5/11 5:15,2.8,12,2.8,11,5.7,8
2016/5/11 5:16,2.8,11,2.8,11,4.3,8
2016/5/11 5:17,2.7,11,2.8,11,3.7,8
2016/5/11 5:18,2.7,11,2.7,11,3.7,10
2016/5/11 5:19,2.7,10,2.7,11,4.4,9
2016/5/11 5:20,2.6,10,2.7,11,3.8,10
2016/5/11 5:21,2.5,10,2.6,11,3.6,12
2016/5/11 5:22,2.4,10,2.5,11,3.6,10
2016/5/11 5:23,2.4,10,2.5,11,2.6,12
2016/5/11 5:24,2.3,11,2.4,11,2.9,13
2016/5/11 5:25,2.1,11,2.2,12,2.6,12
2016/5/11 5:26,2,11,2.1,11,2,13
2016/5/11 5:27,1.9,11,2,11,1.5,9
2016/5/11 5:28,1.8,11,1.9,11,3,10
2016/5/11 5:29,1.6,11,1.8,10,2.5,12
2016/5/11 5:30,1.6,11,1.6,10,6.9,9
2016/5/11 5:31,1.7,11,1.7,10,5.1,10
2016/5/11 5:32,1.8,11,1.8,10,4.9,10
2016/5/11 5:33,2,11,2,10,4.8,9
2016/5/11 5:34,2,11,2,11,3.8,9
2016/5/11 5:35,2.2,10,2.2,10,4.7,10
2016/5/11 5:36,2.3,10,2.3,10,3.3,9
2016/5/11 5:37,2.3,10,2.3,10,2.5,11
2016/5/11 5:38,2.3,10,2.3,10,2.7,9
2016/5/11 5:39,2.3,10,2.3,10,1,11
2016/5/11 5:40,2,10,2.2,10,1.4,4
2016/5/11 5:41,1.8,9,2,10,1.4,5
2016/5/11 5:42,1.6,8,1.8,10,1.8,6
2016/5/11 5:43,1.5,8,1.6,10,3.1,10
2016/5/11 5:44,1.4,8,1.5,10,1.4,13
2016/5/11 5:45,1.2,8,1.4,10,2.1,8
2016/5/11 5:46,1.1,8,1.2,10,2.4,9
2016/5/11 5:47,1,8,1.1,10,0.5,7
2016/5/11 5:48,0.9,8,1,10,1,12
2016/5/11 5:49,1,9,1,10,1.9,14
2016/5/11 5:50,1,10,1,10,1.9,15
2016/5/11 5:51,1,11,1,9,1.4,14
2016/5/11 5:52,0.9,12,1,8,1.1,15
2016/5/11 5:53,0.8,13,0.9,8,1.8,16
2016/5/11 5:54,0.9,14,0.9,8,1.5,1
2016/5/11 5:55,0.9,15,0.9,8,2.7,2
2016/5/11 5:56,1,15,1,8,2.4,1
2016/5/11 5:57,1.1,16,1.1,16,2.2,4
2016/5/11 5:58,1.2,1,1.2,16,2.4,3
2016/5/11 5:59,1.3,1,1.3,1,2.2,3
2016/5/11 6:00,1.2,2,1.3,1,1.5,3
2016/5/11 6:01,1.2,2,1.2,1,1,16
2016/5/11 6:02,1.2,2,1.2,1,1.3,1
2016/5/11 6:03,1.2,2,1.2,1,1.1,16
2016/5/11 6:04,1.1,2,1.2,1,1,3
2016/5/11 6:05,1,2,1.1,1,1.1,3
2016/5/11 6:06,1,2,1,1,1.5,3
2016/5/11 6:07,0.9,2,1,1,1.4,3
2016/5/11 6:08,0.8,2,0.9,1,0.8,3
2016/5/11 6:09,0.6,2,0.8,1,0.5,3
2016/5/11 6:10,0.6,1,0.6,2,0.5,16
2016/5/11 6:11,0.5,1,0.6,2,0.8,13
2016/5/11 6:12,0.5,1,0.5,2,0.9,13
2016/5/11 6:13,0.5,1,0.5,2,0.5,13
2016/5/11 6:14,0.5,1,0.5,2,0.8,1
2016/5/11 6:15,0.4,16,0.5,2,0.6,1
2016/5/11 6:16,0.4,16,0.4,2,0.4,14
2016/5/11 6:17,0.3,15,0.3,2,1,14
2016/5/11 6:18,0.4,15,0.4,2,1.5,13
2016/5/11 6:19,0.5,14,0.5,2,1,11
2016/5/11 6:20,0.5,14,0.5,1,1.1,6
2016/5/11 6:21,0.6,13,0.6,13,1.8,6
2016/5/11 6:22,0.7,13,0.7,13,1.9,5
2016/5/11 6:23,0.8,4,0.8,3,2.1,5
2016/5/11 6:24,1,5,1,5,2,5
2016/5/11 6:25,1,6,1,5,1.3,6
2016/5/11 6:26,1,6,1,5,0.5,5
2016/5/11 6:27,1,6,1,5,1.3,4
2016/5/11 6:28,0.9,5,1,5,1.3,4
2016/5/11 6:29,1,5,1,5,1.3,4
2016/5/11 6:30,0.9,5,1,5,0.6,4
2016/5/11 6:31,0.9,4,0.9,5,2.4,4
2016/5/11 6:32,1,4,1,5,3.1,3
2016/5/11 6:33,1,4,1,5,2.9,2
2016/5/11 6:34,1,4,1,5,2.5,5
2016/5/11 6:35,1,4,1,6,1.6,7
2016/5/11 6:36,1.2,4,1.2,4,1.9,6
2016/5/11 6:37,1.2,4,1.2,4,1.3,6
2016/5/11 6:38,1.1,4,1.2,4,1,5
2016/5/11 6:39,1.1,5,1.1,4,0.3,8
2016/5/11 6:40,1.1,5,1.1,4,0.6,8
2016/5/11 6:41,1,6,1.1,4,1.4,8
2016/5/11 6:42,0.9,6,1,4,1.4,8
2016/5/11 6:43,0.8,6,0.9,4,1,6
2016/5/11 6:44,0.6,6,0.8,4,0.3,5
2016/5/11 6:45,0.6,6,0.6,4,0.9,16
2016/5/11 6:46,0.5,5,0.6,4,1.3,16
2016/5/11 6:47,0.5,4,0.5,4,1,16
2016/5/11 6:48,0.5,3,0.5,4,0.8,15
2016/5/11 6:49,0.5,2,0.5,5,0.8,14
2016/5/11 6:50,0.6,1,0.6,5,1,13
2016/5/11 6:51,0.6,15,0.6,6,1,11
2016/5/11 6:52,0.6,14,0.6,6,1.4,10
2016/5/11 6:53,0.6,14,0.6,6,1.6,10
2016/5/11 6:54,0.7,13,0.7,14,1.9,10
2016/5/11 6:55,0.7,12,0.7,14,1.4,9
2016/5/11 6:56,0.7,11,0.7,14,1.4,7
2016/5/11 6:57,0.7,11,0.7,14,0.9,16
2016/5/11 6:58,0.7,11,0.7,14,1.6,16
2016/5/11 6:59,0.9,11,0.9,11,3.8,15
2016/5/11 7:00,1.1,12,1.1,12,5.2,16
2016/5/11 7:01,1.3,13,1.3,12,4.7,2
2016/5/11 7:02,1.5,14,1.5,13,4.3,15
2016/5/11 7:03,1.8,15,1.8,15,6.4,16
2016/5/11 7:04,2,15,2,15,5.6,16
2016/5/11 7:05,2.3,15,2.3,15,6.9,1
2016/5/11 7:06,2.7,15,2.7,15,7.7,15
2016/5/11 7:07,3.2,15,3.2,15,9.1,14
2016/5/11 7:08,3.6,15,3.6,15,7.1,15
2016/5/11 7:09,3.7,16,3.7,16,8.3,14
2016/5/11 7:10,3.9,16,3.9,16,7.9,15
2016/5/11 7:11,4,15,4,16,5.7,16
2016/5/11 7:12,4.2,16,4.2,15,8.7,16
2016/5/11 7:13,4.5,16,4.5,16,10.5,16
2016/5/11 7:14,4.8,15,4.8,15,9.1,15
2016/5/11 7:15,4.9,16,4.9,16,8.7,1
2016/5/11 7:16,4.9,16,5,16,7.5,15
2016/5/11 7:17,5,16,5,16,8.7,15
2016/5/11 7:18,5.2,16,5.2,16,8.4,15
2016/5/11 7:19,5.3,16,5.3,16,7.6,15
2016/5/11 7:20,5.1,16,5.3,16,5.5,15
2016/5/11 7:21,5,15,5.1,16,5.5,16
2016/5/11 7:22,4.9,15,5,16,6.3,16
2016/5/11 7:23,4.5,15,4.8,16,5.7,1
2016/5/11 7:24,4.3,15,4.5,16,6.1,15
2016/5/11 7:25,4.1,15,4.3,16,6.1,15
2016/5/11 7:26,4.1,15,4.2,16,8.7,15
2016/5/11 7:27,3.9,15,4.1,16,8.4,15
2016/5/11 7:28,3.8,15,3.9,16,8.4,15
2016/5/11 7:29,3.7,15,3.7,16,6,16
2016/5/11 7:30,3.8,15,3.8,16,7.9,15
2016/5/11 7:31,4.2,15,4.2,15,7.8,15
2016/5/11 7:32,4.5,15,4.5,15,8.6,15
2016/5/11 7:33,4.7,15,4.7,15,8.9,15
2016/5/11 7:34,4.8,15,4.8,15,8.5,15
2016/5/11 7:35,5.1,15,5.1,15,10.3,15
2016/5/11 7:36,5.3,15,5.3,15,9.8,15
2016/5/11 7:37,5.3,15,5.3,15,7.8,15
2016/5/11 7:38,5.2,15,5.3,15,8.4,16
2016/5/11 7:39,5.3,15,5.3,15,6.5,15
2016/5/11 7:40,5.2,15,5.3,15,8.6,15
2016/5/11 7:41,5.1,15,5.3,15,8.9,15
2016/5/11 7:42,4.9,15,5.2,15,9,14
2016/5/11 7:43,5,15,5,15,7.7,15
2016/5/11 7:44,5.2,15,5.2,15,9.9,15
2016/5/11 7:45,5.1,15,5.2,15,9.7,15
2016/5/11 7:46,4.9,15,5,15,6.5,16
2016/5/11 7:47,4.9,15,4.9,15,8.3,15
2016/5/11 7:48,5.1,15,5.1,15,7.9,15
2016/5/11 7:49,5.1,15,5.1,15,8.4,15
2016/5/11 7:50,5.2,15,5.2,15,7,1
2016/5/11 7:51,5.1,15,5.2,15,7.8,16
2016/5/11 7:52,5.1,15,5.1,15,7.8,16
2016/5/11 7:53,5,15,5.1,15,5.6,15
2016/5/11 7:54,4.8,15,4.9,15,6.2,15
2016/5/11 7:55,4.7,15,4.8,15,6.5,15
2016/5/11 7:56,4.8,15,4.8,15,6.3,15
2016/5/11 7:57,4.8,15,4.9,15,7.1,15
2016/5/11 7:58,4.7,15,4.9,15,8.1,14
2016/5/11 7:59,4.7,15,4.8,15,7.6,16
2016/5/11 8:00,4.9,15,4.9,15,8.3,14
2016/5/11 8:01,5.1,15,5.1,15,8.1,15
2016/5/11 8:02,5.1,15,5.1,15,7.2,15
2016/5/11 8:03,5.2,15,5.2,15,7.1,16
2016/5/11 8:04,5.2,15,5.3,15,6.9,15
2016/5/11 8:05,5.2,15,5.2,15,7.4,15
2016/5/11 8:06,5.2,15,5.3,15,7,15
2016/5/11 8:07,5.1,15,5.2,15,6,15
2016/5/11 8:08,5,15,5.1,15,8.9,15
2016/5/11 8:09,4.7,15,5,15,6.3,15
2016/5/11 8:10,4.4,15,4.6,15,6.3,15
2016/5/11 8:11,4.3,15,4.4,15,6,14
2016/5/11 8:12,4.1,15,4.2,15,6.3,15
2016/5/11 8:13,3.8,15,4.1,15,3.8,15
2016/5/11 8:14,3.5,15,3.8,15,3.2,16
2016/5/11 8:15,3.4,15,3.5,15,6,13
2016/5/11 8:16,3.4,15,3.4,15,7.5,15
2016/5/11 8:17,3.4,15,3.4,15,6.3,15
2016/5/11 8:18,3.5,15,3.5,15,6.4,16
2016/5/11 8:19,3.7,15,3.7,15,8.2,16
2016/5/11 8:20,3.9,15,3.9,15,9.1,15
2016/5/11 8:21,3.6,15,3.8,15,4.7,16
2016/5/11 8:22,3.6,15,3.6,15,4.7,14
2016/5/11 8:23,3.9,15,3.9,15,9.3,15
2016/5/11 8:24,4,15,4.1,15,5,16
2016/5/11 8:25,4,15,4.1,15,5.6,14
2016/5/11 8:26,3.9,15,4,15,8.1,16
2016/5/11 8:27,4,15,4,15,7.9,16
2016/5/11 8:28,4,15,4,15,7,16
2016/5/11 8:29,3.9,15,4,15,6.4,16
2016/5/11 8:30,3.7,15,3.8,15,5.8,16
2016/5/11 8:31,3.7,15,3.7,15,5.4,13
2016/5/11 8:32,3.8,15,3.8,15,4.9,12
2016/5/11 8:33,3.6,15,3.8,15,3.8,12
2016/5/11 8:34,3.6,14,3.6,15,6,15
2016/5/11 8:35,3.5,14,3.6,15,5.6,14
2016/5/11 8:36,3.6,14,3.6,15,5.2,16
2016/5/11 8:37,3.5,15,3.6,15,8.5,16
2016/5/11 8:38,3.4,15,3.6,15,7.1,16
2016/5/11 8:39,3.5,15,3.5,15,5.1,15
2016/5/11 8:40,3.6,15,3.6,15,6.2,14
2016/5/11 8:41,3.8,15,3.8,15,6.7,16
2016/5/11 8:42,3.9,15,3.9,15,7.2,16
2016/5/11 8:43,4,15,4.1,15,8.2,16
2016/5/11 8:44,4.1,15,4.1,15,7.4,16
2016/5/11 8:45,4.2,15,4.2,15,6.9,16
2016/5/11 8:46,4,15,4.1,15,4.7,15
2016/5/11 8:47,3.9,15,4.1,15,4.9,14
2016/5/11 8:48,3.9,15,3.9,15,7.4,15
2016/5/11 8:49,3.8,15,3.9,15,4.7,15
2016/5/11 8:50,3.8,15,3.9,15,6.7,16
2016/5/11 8:51,3.9,15,3.9,15,7.9,15
2016/5/11 8:52,4,15,4,15,7.7,16
2016/5/11 8:53,3.9,15,4,15,8.7,16
2016/5/11 8:54,4.1,15,4.1,15,9.1,14
2016/5/11 8:55,4.3,15,4.3,15,8.4,14
2016/5/11 8:56,4.4,15,4.5,15,7.2,14
2016/5/11 8:57,4.6,15,4.6,15,7,15
2016/5/11 8:58,4.8,15,4.8,15,9,15
2016/5/11 8:59,5.1,15,5.1,15,7.7,14
2016/5/11 9:00,5,15,5.1,15,5.7,16
2016/5/11 9:01,5,15,5.1,15,8.6,15
2016/5/11 9:02,5,15,5,15,8.3,15
2016/5/11 9:03,5,15,5.1,15,7.7,15
2016/5/11 9:04,4.8,15,5.1,15,7,15
2016/5/11 9:05,4.6,15,4.8,15,5.2,16
2016/5/11 9:06,4.5,15,4.6,15,5.4,14
2016/5/11 9:07,4.3,15,4.4,15,7.1,15
2016/5/11 9:08,4.1,15,4.3,15,6.2,14
2016/5/11 9:09,3.8,15,4.1,15,3.5,13
2016/5/11 9:10,3.7,15,3.8,15,4.2,16
2016/5/11 9:11,3.5,14,3.6,15,4.5,14
2016/5/11 9:12,3.3,14,3.4,15,5.2,14
2016/5/11 9:13,3.2,14,3.3,15,7,13
2016/5/11 9:14,3.3,14,3.3,15,8.9,16
2016/5/11 9:15,3.4,14,3.4,15,6.4,16
2016/5/11 9:16,3.7,15,3.7,15,8.4,16
2016/5/11 9:17,3.9,15,3.9,15,9.5,16
2016/5/11 9:18,3.8,15,3.9,15,6.9,15
2016/5/11 9:19,4,15,4,15,6.8,14
2016/5/11 9:20,4.2,15,4.2,15,7.2,16
2016/5/11 9:21,4.5,15,4.5,15,7.5,16
2016/5/11 9:22,4.6,15,4.6,15,8.3,16
2016/5/11 9:23,4.5,15,4.6,15,6.5,16
2016/5/11 9:24,4.4,16,4.4,15,7.5,16
2016/5/11 9:25,4.3,16,4.4,15,5.4,16
2016/5/11 9:26,4.2,16,4.2,15,10,15
2016/5/11 9:27,4.1,16,4.2,15,8.2,16
2016/5/11 9:28,4.3,16,4.3,15,8.7,16
2016/5/11 9:29,4.3,16,4.3,15,7.1,16
2016/5/11 9:30,4.2,16,4.4,15,5.7,16
2016/5/11 9:31,3.9,16,4.1,15,3.2,1
2016/5/11 9:32,3.7,16,3.8,15,4.2,16
2016/5/11 9:33,3.7,16,3.7,16,4.8,15
2016/5/11 9:34,3.5,16,3.7,16,3.9,1
2016/5/11 9:35,3.6,16,3.6,16,5.2,1
2016/5/11 9:36,3.4,16,3.6,16,4.9,16
2016/5/11 9:37,3.3,16,3.4,16,5.2,15
2016/5/11 9:38,3.1,16,3.3,16,6.4,15
2016/5/11 9:39,2.9,16,3.1,16,4.5,15
2016/5/11 9:40,3,16,3,16,7.6,16
2016/5/11 9:41,3.3,16,3.3,16,7.5,16
2016/5/11 9:42,3.3,16,3.3,16,4.2,16
2016/5/11 9:43,3.1,16,3.3,16,2.7,16
2016/5/11 9:44,3,16,3.1,16,1.5,16
2016/5/11 9:45,2.7,16,2.9,16,1.9,15
2016/5/11 9:46,2.5,16,2.7,16,2.7,16
2016/5/11 9:47,2.4,16,2.5,16,3.2,14
2016/5/11 9:48,2.4,16,2.4,16,6,16
2016/5/11 9:49,2.4,16,2.4,16,4.9,1
2016/5/11 9:50,2,16,2.4,16,2.2,16
2016/5/11 9:51,1.7,16,1.9,16,3.1,15
2016/5/11 9:52,1.7,16,1.7,16,6.9,1
2016/5/11 9:53,1.9,16,1.9,16,6,15
2016/5/11 9:54,2.1,15,2.1,16,3.5,15
2016/5/11 9:55,2.3,15,2.3,16,4.8,15
2016/5/11 9:56,2.4,15,2.4,16,5.7,16
2016/5/11 9:57,2.6,15,2.6,15,5.7,16
2016/5/11 9:58,2.4,15,2.6,15,3.3,1
2016/5/11 9:59,2.3,15,2.4,15,3.2,1
2016/5/11 10:00,2.8,15,2.8,15,9.1,15
2016/5/11 10:01,3.2,15,3.2,15,8.6,16
2016/5/11 10:02,3.3,15,3.3,15,8.2,16
2016/5/11 10:03,3.3,15,3.3,15,6.7,16
2016/5/11 10:04,3.6,16,3.6,16,7.8,16
2016/5/11 10:05,4,16,4,16,10.3,16
2016/5/11 10:06,4.4,16,4.4,16,8.9,1
2016/5/11 10:07,4.3,16,4.4,16,5.4,16
2016/5/11 10:08,4.7,16,4.7,16,7.7,16
2016/5/11 10:09,4.9,16,4.9,16,8.2,15
2016/5/11 10:10,4.7,16,4.9,16,6.7,16
2016/5/11 10:11,4.5,16,4.6,16,6.1,16
2016/5/11 10:12,4.3,16,4.5,16,4.2,3
2016/5/11 10:13,4.2,16,4.4,16,4.3,15
2016/5/11 10:14,3.8,16,4.2,16,2.4,16
2016/5/11 10:15,3.3,15,3.8,16,3.2,11
2016/5/11 10:16,2.9,15,3.3,16,3.5,12
2016/5/11 10:17,2.8,14,2.9,16,3.2,11
2016/5/11 10:18,2.4,14,2.8,16,2.2,10
2016/5/11 10:19,2.2,14,2.4,16,2.2,3
2016/5/11 10:20,2,13,2.1,16,3.2,4
2016/5/11 10:21,1.7,12,2,16,2,8
2016/5/11 10:22,1.6,12,1.7,16,2.4,4
2016/5/11 10:23,1.5,11,1.5,16,2.1,14
2016/5/11 10:24,1.5,12,1.5,16,1.9,15
2016/5/11 10:25,1.4,13,1.5,15,2,16
2016/5/11 10:26,1.3,15,1.4,15,2,16
2016/5/11 10:27,1.4,16,1.4,14,5.5,16
2016/5/11 10:28,1.4,16,1.5,14,2.7,15
2016/5/11 10:29,1.4,15,1.4,14,2.2,4
2016/5/11 10:30,1.4,15,1.4,13,5.7,16
2016/5/11 10:31,1.7,15,1.7,12,6.9,15
2016/5/11 10:32,1.8,15,1.8,15,4.7,16
2016/5/11 10:33,2,16,2,15,7.5,16
2016/5/11 10:34,2.2,16,2.2,16,5.6,16
2016/5/11 10:35,2.6,16,2.6,16,7.5,16
2016/5/11 10:36,2.7,16,2.7,16,6,1
2016/5/11 10:37,2.7,16,2.7,16,4.7,16
2016/5/11 10:38,2.9,16,2.9,16,8.6,1
2016/5/11 10:39,3.3,16,3.3,16,8.4,16
2016/5/11 10:40,3.4,16,3.4,16,5.5,1
2016/5/11 10:41,3.3,16,3.4,16,6.2,1
2016/5/11 10:42,3.5,16,3.5,16,6.9,16
2016/5/11 10:43,3.4,16,3.5,16,4.9,15
2016/5/11 10:44,3.6,16,3.6,16,7.6,12
2016/5/11 10:45,3.6,16,3.7,16,7.1,11
2016/5/11 10:46,3.6,15,3.7,16,5.8,12
2016/5/11 10:47,3.6,16,3.6,16,4.5,16
2016/5/11 10:48,3.6,15,3.7,16,5.7,16
2016/5/11 10:49,3.7,15,3.7,16,6.7,16
2016/5/11 10:50,3.6,15,3.7,16,5.7,16
2016/5/11 10:51,3.6,15,3.7,16,4.9,16
2016/5/11 10:52,3.5,15,3.6,16,4.3,1
2016/5/11 10:53,3.7,16,3.7,16,7.7,15
2016/5/11 10:54,3.7,16,3.8,16,9.4,15
2016/5/11 10:55,3.7,16,3.8,16,6.5,15
2016/5/11 10:56,3.8,16,3.8,16,5.8,16
2016/5/11 10:57,3.7,16,3.8,16,5,16
2016/5/11 10:58,3.8,16,3.8,16,7.8,16
2016/5/11 10:59,3.7,16,3.8,16,8.7,14
2016/5/11 11:00,3.5,15,3.6,16,3.6,12
2016/5/11 11:01,3.4,15,3.5,16,3,11
2016/5/11 11:02,3.6,15,3.6,16,7.5,16
2016/5/11 11:03,3.3,15,3.6,16,6,16
2016/5/11 11:04,3.1,15,3.3,16,5.1,16
2016/5/11 11:05,2.9,15,3.1,16,4.4,16
2016/5/11 11:06,2.9,15,2.9,16,5.7,15
2016/5/11 11:07,3.2,15,3.2,16,7,15
2016/5/11 11:08,3.1,15,3.2,16,5.5,15
2016/5/11 11:09,2.9,15,3,16,5.1,10
2016/5/11 11:10,3.1,15,3.1,15,6.2,10
2016/5/11 11:11,3.1,15,3.1,15,4.1,9
2016/5/11 11:12,2.7,15,3,15,2.5,6
2016/5/11 11:13,2.6,15,2.7,15,2.7,12
2016/5/11 11:14,2.6,15,2.6,15,3.8,16
2016/5/11 11:15,2.6,15,2.6,15,4.8,16